CW1490 Weather Reports


Display with metric or nautical units.
time (UTC)temp
F
wind
direction
speed
MPH
gust
MPH
rain 1hr
in
rain 24hr
in
rain mn
in
humidity
%
barometer
mb
20260505114009 55 217 8.0 13.0 0.00 0.00 0.00 75 1009.3
20260505113509 55 203 4.0 13.0 0.00 0.00 0.00 75 1009.4
20260505113021 55 178 6.0 12.0 0.00 0.00 0.00 75 1009.4
20260505112511 55 207 5.0 16.0 0.00 0.00 0.00 76 1009.5
20260505112008 54 216 8.0 16.0 0.00 0.00 0.00 75 1009.5
20260505111510 54 218 7.0 12.0 0.00 0.00 0.00 76 1009.5
20260505111004 53 200 8.0 12.0 0.00 0.00 0.00 77 1009.4
20260505110504 53 196 5.0 10.0 0.00 0.00 0.00 77 1009.3
20260505102007 49 229 5.0 8.0 0.00 0.00 0.00 82 1008.8
20260505101523 49 232 4.0 7.0 0.00 0.00 0.00 82 1008.7
20260505101007 49 213 5.0 7.0 0.00 0.00 0.00 81 1008.6
20260505100507 49 238 3.0 6.0 0.00 0.00 0.00 81 1008.7
20260505100036 50 231 3.0 6.0 0.00 0.00 0.00 80 1008.7
20260505095505 50 221 3.0 5.0 0.00 0.00 0.00 80 1008.7
20260505095006 50 221 3.0 5.0 0.00 0.00 0.00 79 1008.8
20260505094515 51 210 2.0 8.0 0.00 0.00 0.00 78 1008.8
20260505094006 51 247 3.0 8.0 0.00 0.00 0.00 78 1008.8
20260505093506 51 236 5.0 8.0 0.00 0.00 0.00 77 1008.7
20260505093026 51 218 3.0 8.0 0.00 0.00 0.00 77 1008.7
20260505092507 51 224 4.0 8.0 0.00 0.00 0.00 77 1008.6
20260505092006 52 218 3.0 10.0 0.00 0.00 0.00 76 1008.6
20260505091528 52 231 4.0 10.0 0.00 0.00 0.00 76 1008.6
20260505091007 52 219 5.0 9.0 0.00 0.00 0.00 77 1008.7
20260505090510 52 207 4.0 10.0 0.00 0.00 0.00 77 1008.7
20260505090024 51 207 4.0 10.0 0.00 0.00 0.00 78 1008.8
20260505085508 51 282 2.0 8.0 0.00 0.00 0.00 77 1008.9
20260505085015 51 205 2.0 8.0 0.00 0.00 0.00 77 1008.9
20260505084528 51 224 3.0 7.0 0.00 0.00 0.00 78 1009.0
20260505084003 51 205 1.0 5.0 0.00 0.00 0.00 77 1009.1
20260505083504 51 195 2.0 9.0 0.00 0.00 0.00 76 1009.1
20260505083020 52 217 2.0 9.0 0.00 0.00 0.00 75 1009.0
20260505082504 52 221 2.0 8.0 0.00 0.00 0.00 74 1009.0
20260505082006 53 217 2.0 12.0 0.00 0.00 0.00 74 1008.9
20260505081522 52 200 3.0 12.0 0.00 0.00 0.00 74 1008.9
20260505081010 52 232 5.0 12.0 0.00 0.00 0.00 74 1008.8
20260505080508 52 215 5.0 12.0 0.00 0.00 0.00 74 1008.8
20260505080041 52 209 3.0 11.0 0.00 0.00 0.00 74 1008.7
20260505075507 52 205 3.0 13.0 0.00 0.00 0.00 73 1008.8
20260505075008 53 227 6.0 13.0 0.00 0.00 0.00 73 1008.7
20260505074528 53 232 5.0 12.0 0.00 0.00 0.00 73 1008.9
20260505074010 53 207 7.0 12.0 0.00 0.00 0.00 73 1008.9
20260505073508 53 232 6.0 11.0 0.00 0.00 0.00 73 1008.9
20260505073027 52 212 4.0 10.0 0.00 0.00 0.00 73 1008.9
20260505072511 53 236 5.0 11.0 0.00 0.00 0.00 72 1008.9
20260505072008 53 213 6.0 11.0 0.00 0.00 0.00 72 1008.9
20260505071522 53 211 4.0 10.0 0.00 0.00 0.00 72 1009.0
20260505071013 53 219 5.0 10.0 0.00 0.00 0.00 72 1009.0
20260505070511 53 229 4.0 9.0 0.00 0.00 0.00 72 1009.0
20260505070023 53 236 4.0 9.0 0.00 0.00 0.00 72 1009.0
20260505065507 53 238 4.0 10.0 0.00 0.00 0.00 72 1009.0
20260505065015 53 252 4.0 10.0 0.00 0.00 0.00 71 1009.0
20260505064527 53 243 4.0 11.0 0.00 0.00 0.00 71 1009.0
20260505064008 53 243 6.0 11.0 0.00 0.00 0.00 71 1009.0
20260505063511 53 221 4.0 11.0 0.00 0.00 0.00 70 1009.0
20260505063009 54 237 4.0 11.0 0.00 0.00 0.00 70 1009.0
20260505062504 54 229 6.0 11.0 0.00 0.00 0.00 70 1009.0
20260505062005 54 217 7.0 12.0 0.00 0.00 0.00 69 1009.1
20260505061512 54 193 6.0 12.0 0.00 0.00 0.00 69 1009.1
20260505061003 54 207 6.0 11.0 0.00 0.00 0.00 69 1009.2
20260505060507 54 190 7.0 11.0 0.00 0.00 0.00 68 1009.2
20260505060011 54 265 6.0 12.0 0.00 0.00 0.00 68 1009.3
20260505055503 54 232 7.0 12.0 0.00 0.00 0.00 68 1009.3
20260505055003 54 194 5.0 10.0 0.00 0.00 0.00 68 1009.4
20260505054505 55 216 5.0 11.0 0.00 0.00 0.00 67 1009.4
20260505054004 55 232 6.0 11.0 0.00 0.00 0.00 67 1009.3
20260505053503 54 205 6.0 12.0 0.00 0.00 0.00 67 1009.3
20260505053007 54 218 7.0 12.0 0.00 0.00 0.00 68 1009.3
20260505052503 54 223 4.0 8.0 0.00 0.00 0.00 68 1009.2
20260505052004 54 225 3.0 11.0 0.00 0.00 0.00 68 1009.3
20260505051522 54 173 3.0 11.0 0.00 0.00 0.00 67 1009.3
20260505051005 55 231 4.0 10.0 0.00 0.00 0.00 66 1009.4
20260505050503 55 212 2.0 6.0 0.00 0.00 0.00 65 1009.4
20260505041510 56 224 5.0 10.0 0.00 0.00 0.00 63 1009.2
20260505041006 57 227 5.0 10.0 0.00 0.00 0.00 62 1009.2
20260505040506 57 212 5.0 10.0 0.00 0.00 0.00 62 1009.2
20260505040016 57 191 4.0 10.0 0.00 0.00 0.00 62 1009.2
20260505035507 56 219 4.0 16.0 0.00 0.00 0.00 62 1009.1
20260505035007 57 207 4.0 16.0 0.00 0.00 0.00 61 1009.0
20260505034517 57 221 4.0 10.0 0.00 0.00 0.00 60 1008.9
20260505034006 58 218 5.0 11.0 0.00 0.00 0.00 60 1008.9
20260505033507 58 211 7.0 11.0 0.00 0.00 0.00 59 1008.9
20260505033023 58 207 7.0 11.0 0.00 0.00 0.00 60 1008.9
20260505032508 58 218 5.0 14.0 0.00 0.00 0.00 59 1008.9
20260505032007 59 227 5.0 15.0 0.00 0.00 0.00 58 1008.8
20260505031526 59 189 7.0 15.0 0.00 0.00 0.00 57 1008.7
20260505031003 59 213 8.0 18.0 0.00 0.00 0.00 57 1008.7
20260505030504 59 201 8.0 18.0 0.00 0.00 0.00 57 1008.7
20260505030012 59 209 10.0 16.0 0.00 0.00 0.00 56 1008.7
20260505025514 60 202 9.0 18.0 0.00 0.00 0.00 56 1008.7
20260505025007 60 223 9.0 17.0 0.00 0.00 0.00 56 1008.7
20260505024517 60 207 10.0 16.0 0.00 0.00 0.00 56 1008.7
20260505024010 60 211 7.0 12.0 0.00 0.00 0.00 56 1008.7
20260505023505 60 219 7.0 17.0 0.00 0.00 0.00 55 1008.7
20260505023022 60 217 9.0 17.0 0.00 0.00 0.00 55 1008.7
20260505022506 60 208 6.0 12.0 0.00 0.00 0.00 55 1008.7
20260505022010 60 219 6.0 16.0 0.00 0.00 0.00 54 1008.8
20260505021520 61 227 8.0 16.0 0.00 0.00 0.00 53 1008.7
20260505021006 61 213 9.0 16.0 0.00 0.00 0.00 53 1008.7
20260505020508 61 219 8.0 14.0 0.00 0.00 0.00 53 1008.7
20260505020023 61 218 8.0 18.0 0.00 0.00 0.00 52 1008.6
20260505015508 61 238 9.0 18.0 0.00 0.00 0.00 52 1008.5
20260505015005 60 182 9.0 17.0 0.00 0.00 0.00 54 1008.5
20260505014521 60 198 7.0 17.0 0.00 0.00 0.00 53 1008.5
20260505014007 59 216 8.0 14.0 0.00 0.00 0.00 55 1008.5
20260505013506 57 207 7.0 12.0 0.00 0.00 0.00 57 1008.5
20260505013020 56 196 6.0 11.0 0.00 0.00 0.00 60 1008.5
20260505012506 55 221 6.0 9.0 0.00 0.00 0.00 67 1008.4
20260505012010 55 219 6.0 9.0 0.00 0.00 0.00 67 1008.2
20260505011522 55 214 3.0 7.0 0.00 0.00 0.00 66 1008.1
20260505011006 56 218 4.0 8.0 0.00 0.00 0.00 65 1008.1
20260505010507 56 221 5.0 8.0 0.00 0.00 0.00 63 1008.1
20260505010023 57 195 4.0 7.0 0.00 0.00 0.00 60 1008.0
20260505005508 58 212 4.0 7.0 0.00 0.00 0.00 60 1007.9
20260505005008 58 218 4.0 6.0 0.00 0.00 0.00 59 1007.9
20260505004522 59 198 3.0 7.0 0.00 0.00 0.00 58 1007.8
20260505004008 59 218 4.0 7.0 0.00 0.00 0.00 54 1007.8
20260505003503 60 216 4.0 8.0 0.00 0.00 0.00 55 1007.7
20260505003019 61 216 4.0 8.0 0.00 0.00 0.00 52 1007.6
20260505002508 62 193 4.0 8.0 0.00 0.00 0.00 50 1007.5
20260505002008 62 236 5.0 7.0 0.00 0.00 0.00 50 1007.5
20260505001524 62 242 4.0 7.0 0.00 0.00 0.00 50 1007.4
20260505001007 63 218 4.0 9.0 0.00 0.00 0.00 51 1007.4
20260505000506 64 202 6.0 9.0 0.00 0.00 0.00 47 1007.3
20260505000031 64 221 5.0 10.0 0.00 0.00 0.00 46 1007.2
20260504235507 64 215 6.0 10.0 0.00 0.00 0.00 44 1007.1
20260504235009 65 218 5.0 8.0 0.00 0.00 0.00 45 1007.0
20260504234524 65 213 4.0 8.0 0.00 0.00 0.00 43 1006.8
20260504234010 65 213 4.0 8.0 0.00 0.00 0.00 42 1006.8
20260504233507 66 221 4.0 8.0 0.00 0.00 0.00 41 1006.7
20260504233025 67 218 4.0 9.0 0.00 0.00 0.00 40 1006.6
20260504232510 67 200 5.0 9.0 0.00 0.00 0.00 40 1006.5
20260504232010 68 201 3.0 9.0 0.00 0.00 0.00 39 1006.4
20260504231522 68 223 4.0 12.0 0.00 0.00 0.00 38 1006.3
20260504231007 69 223 7.0 12.0 0.00 0.00 0.00 37 1006.3
20260504230507 69 207 8.0 12.0 0.00 0.00 0.00 36 1006.3
20260504230024 69 219 7.0 13.0 0.00 0.00 0.00 36 1006.3
20260504225510 69 218 6.0 14.0 0.00 0.00 0.00 37 1006.2
20260504225009 69 221 7.0 14.0 0.00 0.00 0.00 35 1006.1
20260504224528 70 245 7.0 16.0 0.00 0.00 0.00 35 1006.1
20260504224009 70 221 8.0 17.0 0.00 0.00 0.00 34 1006.0
20260504223509 70 250 6.0 17.0 0.00 0.00 0.00 35 1005.9
20260504223025 70 201 3.0 16.0 0.00 0.00 0.00 36 1006.0
20260504222509 70 234 8.0 24.0 0.00 0.00 0.00 36 1006.0
20260504222008 70 249 9.0 24.0 0.00 0.00 0.00 36 1005.9
20260504221528 70 249 10.0 20.0 0.00 0.00 0.00 34 1005.8
20260504221011 70 245 10.0 19.0 0.00 0.00 0.00 35 1005.9
20260504220509 70 219 13.0 19.0 0.00 0.00 0.00 34 1005.9
20260504220024 70 244 7.0 16.0 0.00 0.00 0.00 34 1005.8
20260504215510 70 223 7.0 17.0 0.00 0.00 0.00 35 1005.8
20260504215009 71 202 6.0 22.0 0.00 0.00 0.00 34 1005.9
20260504214537 71 205 13.0 22.0 0.00 0.00 0.00 35 1005.9
20260504214012 70 231 7.0 20.0 0.00 0.00 0.00 35 1006.0
20260504213509 70 198 7.0 22.0 0.00 0.00 0.00 37 1006.1
20260504213010 70 215 12.0 24.0 0.00 0.00 0.00 34 1006.0
20260504212502 70 270 13.0 23.0 0.00 0.00 0.00 34 1006.1
20260504212005 70 189 10.0 20.0 0.00 0.00 0.00 33 1006.1
20260504211512 71 227 12.0 19.0 0.00 0.00 0.00 34 1006.1
20260504211001 71 219 11.0 19.0 0.00 0.00 0.00 34 1006.1
20260504210503 71 221 8.0 22.0 0.00 0.00 0.00 35 1006.1
20260504210007 71 232 11.0 25.0 0.00 0.00 0.00 35 1006.2
20260504205503 71 227 17.0 25.0 0.00 0.00 0.00 35 1006.1
20260504205004 71 245 7.0 25.0 0.00 0.00 0.00 35 1006.2
20260504204505 71 223 12.0 24.0 0.00 0.00 0.00 34 1006.2
20260504204004 71 210 6.0 13.0 0.00 0.00 0.00 37 1006.2
20260504203502 70 288 5.0 19.0 0.00 0.00 0.00 37 1006.3
20260504203007 70 225 8.0 19.0 0.00 0.00 0.00 36 1006.4
20260504202511 70 259 10.0 24.0 0.00 0.00 0.00 34 1006.4
20260504202004 70 215 10.0 27.0 0.00 0.00 0.00 35 1006.4
20260504201525 70 225 8.0 34.0 0.00 0.00 0.00 33 1006.3
20260504201003 71 236 20.0 34.0 0.00 0.00 0.00 33 1006.3
20260504200508 71 229 9.0 33.0 0.00 0.00 0.00 35 1006.4
20260504200005 71 269 6.0 35.0 0.00 0.00 0.00 37 1006.4
20260504195503 71 186 17.0 35.0 0.00 0.00 0.00 34 1006.2
20260504195007 70 203 12.0 22.0 0.00 0.00 0.00 35 1006.4
20260504194520 70 207 10.0 22.0 0.00 0.00 0.00 35 1006.5
20260504194003 70 257 2.0 26.0 0.00 0.00 0.00 38 1006.5
20260504193506 70 229 9.0 26.0 0.00 0.00 0.00 33 1006.5
20260504193003 70 227 11.0 23.0 0.00 0.00 0.00 36 1006.6
20260504192503 69 267 5.0 21.0 0.00 0.00 0.00 35 1006.6
20260504192007 69 156 6.0 24.0 0.00 0.00 0.00 35 1006.5
20260504191507 70 227 13.0 32.0 0.00 0.00 0.00 34 1006.7
20260504191006 70 221 12.0 32.0 0.00 0.00 0.00 36 1006.5
20260504190508 70 219 11.0 32.0 0.00 0.00 0.00 35 1006.6
20260504190015 70 198 21.0 32.0 0.00 0.00 0.00 35 1006.6
20260504185507 69 207 18.0 29.0 0.00 0.00 0.00 36 1006.6
20260504185002 69 229 15.0 29.0 0.00 0.00 0.00 34 1006.8
20260504184503 69 243 12.0 29.0 0.00 0.00 0.00 35 1006.9
20260504184003 70 232 15.0 26.0 0.00 0.00 0.00 34 1006.8
20260504183501 70 255 6.0 25.0 0.00 0.00 0.00 36 1006.9
20260504183007 70 188 10.0 23.0 0.00 0.00 0.00 35 1006.8
20260504182503 71 196 10.0 35.0 0.00 0.00 0.00 34 1006.8
20260504182013 71 237 23.0 35.0 0.00 0.00 0.00 35 1006.8
20260504181508 70 189 4.0 29.0 0.00 0.00 0.00 39 1006.8
20260504181004 70 250 21.0 29.0 0.00 0.00 0.00 33 1007.0
20260504180504 70 280 6.0 21.0 0.00 0.00 0.00 35 1006.9
20260504180028 70 242 10.0 29.0 0.00 0.00 0.00 36 1007.0
20260504175507 70 280 6.0 31.0 0.00 0.00 0.00 43 1007.1
20260504175005 69 243 19.0 31.0 0.00 0.00 0.00 35 1007.2
20260504174516 68 261 8.0 26.0 0.00 0.00 0.00 38 1007.2
20260504174007 68 265 10.0 26.0 0.00 0.00 0.00 39 1007.2
20260504173505 68 215 13.0 24.0 0.00 0.00 0.00 36 1007.2
20260504173003 69 272 8.0 21.0 0.00 0.00 0.00 37 1007.1
20260504172507 70 250 6.0 20.0 0.00 0.00 0.00 43 1007.2
20260504172001 68 87 5.0 20.0 0.00 0.00 0.00 34 1007.3
20260504171507 68 270 9.0 17.0 0.00 0.00 0.00 38 1007.4
20260504171003 67 51 5.0 22.0 0.00 0.00 0.00 39 1007.5
20260504170503 66 266 7.0 22.0 0.00 0.00 0.00 40 1007.6
20260504151010 66 223 18.0 32.0 0.00 0.00 0.00 39 1008.3
20260504150511 66 261 19.0 31.0 0.00 0.00 0.00 37 1008.3
20260504141009 63 265 14.0 30.0 0.00 0.00 0.00 41 1008.6
20260504140507 63 196 13.0 27.0 0.00 0.00 0.00 41 1008.6
20260504130511 56 191 10.0 23.0 0.00 0.00 0.00 51 1009.3